Flag for U.S.A. Weather past 2 weeks in Rapid City, South Dakota, U.S.A.

Now
44 °F

Partly sunny.


Feels Like: 39 °F
Forecast: 9 / 45 °F
Wind: 10 mph from North

Location: Ellsworth Air Force Base

Current Time: Mar 2, 2015 at 4:19:23 PM

Latest Report: Mar 2, 2015 at 3:58 PM


Visibility: 10 mi

Pressure: 29.79 "Hg

Humidity: 51%

Dew point: 27 °F

Location of Rapid CityLocation

Historic Weather in Rapid City — Graph

°F

Rapid City temperature yesterday

Maximum temperature yesterday: 28 °F (at 2:58 PM)
Minimum temperature yesterday: 9 °F (at 6:58 AM)
Average temperature yesterday: 18 °F

Past Weeks' High & Low Weather Summary

 TemperatureHumidityPressure
High55 °F (Feb 24, 3:03 PM)100% (Feb 25, 6:58 AM)30.78 "Hg (Feb 25, 6:58 AM)
Low-4 °F (Feb 26, 8:58 PM)14% (Feb 23, 2:58 PM)29.66 "Hg (Feb 24, 9:58 PM)
Average23 °F65%30.23 "Hg
* Reported Feb 15 2:58 PM — Mar 2 2:58 PM, Rapid City, Weather by CustomWeather, © 2015

Note: Actual official high and low records may vary slightly from our data, if they occured in-between our weather recording intervals... More about our weather records

Advertising

Rapid City weather history for previous 24 hours

 ConditionsComfort  
Time TempWeatherWind HumidityBarometerVisibility
2:58 PM
Mon, Mar 2
44 °FScattered clouds.10 mph54%29.80 "Hg10 mi
1:58 PM44 °FBroken clouds.12 mph53%29.81 "Hg10 mi
12:58 PM46 °FBroken clouds.9 mph42%29.85 "Hg10 mi
11:58 AM44 °FScattered clouds.21 mph45%29.88 "Hg10 mi
10:58 AM39 °FPartly sunny.17 mph51%29.93 "Hg10 mi
9:58 AM35 °FScattered clouds.21 mph57%29.97 "Hg10 mi
8:58 AM30 °FSunny.23 mph62%30.01 "Hg10 mi
7:58 AM25 °FSunny.22 mph64%30.06 "Hg10 mi
6:58 AM19 °FPassing clouds.21 mph67%30.08 "Hg10 mi
5:58 AM20 °FSunny.15 mph62%30.14 "Hg10 mi
4:58 AM17 °FClear.21 mph67%30.17 "Hg10 mi
3:58 AM15 °FClear.16 mph72%30.21 "Hg10 mi
2:58 AM15 °FPassing clouds.13 mph73%30.25 "Hg10 mi
1:58 AM18 °FClear.13 mph62%30.30 "Hg10 mi
12:58 AM14 °FClear.15 mph74%30.35 "Hg10 mi
11:58 PM
Sun, Mar 1
12 °FClear.9 mph76%30.38 "Hg10 mi
10:58 PM13 °FClear.8 mph74%30.40 "Hg10 mi
9:58 PM15 °FClear.3 mph71%30.46 "Hg10 mi
8:58 PM15 °FClear.1 mph71%30.47 "Hg10 mi
7:58 PM13 °FClear.2 mph72%30.47 "Hg10 mi
6:58 PM21 °FClear.No wind58%30.47 "Hg10 mi
5:58 PM22 °FClear.6 mph57%30.46 "Hg10 mi
4:58 PM25 °FClear.18 mph54%30.41 "Hg10 mi
Weather by CustomWeather, © 2015

See weather overviewHow to use our weather pages